INTELSAT 33E DEB, 64401

Orbit data source: Space-Track

INTELSAT 33E DEB, 64401 is space debris in GEO originally from a launch on Wed, 24 Aug 2016 UTC launched from the French Guiana (FRGUI). Debris objects in space refer to the collection of defunct objects orbiting the Earth. Examples of debris include non-operational satellites, rocket bodies, and fragments generated from explosions, collisions, or faulty payload assembly.

Not visible in the next 10 days
Identifier
64401, 2016-053AF
Orbit
GEO
Country
Flag of UnknownUnknown / ITSO
Related business
Manufacturer
Boeing/ES
Mission
Spacecraft
Bus & Motor
Unknown
Mass
Unknown
Launch date (UTC)
2016-08-24 (9 years ago)
Launch vehicle
Unknown
Launch site
French Guiana (FRGUI)
Object type
Payload
Rocket body
Debris
Shape & HBR
Unknown shape, 1.1 m
Radar Cross Section
RCS unknown

Expand to show TLE details & history
Last TLE update: 18 hours ago

TLE from 18 hours ago
0 INTELSAT 33E DEB
1 64401U 16053AF  25340.89212774 -.00000093  00000-0  00000-0 0  9997
2 64401   0.9405  70.2973 0583607 298.3245 352.3675  1.05790599  4263
Epoch: 2025-12-06T21:24Z
TLE epoch observation values (Epoch: 2025-12-06T21:24:39.836Z)
Latitude
-0.87715°
Longitude
-37.07676°
Altitude
31,965.525 km
Speed
3.316 km/s
True Right ascension
00h 00m 00s
True Declination
0° 52' 34"
Sunlit
Object was in daylight at epoch
Visualization orbit readout
Latitude
Unknown
Longitude
Unknown
Altitude
Unknown
Speed
Unknown
Apparent Right ascension
Unknown
Apparent Declination
Unknown
Sunlit
N/A
Visualization observer readout
Local Sidereal Time
13:32:30
Azimuth
Unknown
Elevation
Unknown
Doppler factor
Unknown
Orbital elements
Apogee altitude
36,682.724 km
Perigee altitude
31,933.753 km
Semi-major axis
40,686.375 km
Eccentricity
0.05836
Inclination
0.9405°
RAAN
70.2973°
Arg. of periapsis
298.3245°
True anomaly
351.41031°
Mean anomaly
352.3675°
Eccentric anomaly
351.89613°
Mean motion
0.26447 °/min
Orbital period
1,361.23 mins
BSTAR
0
Loading maneuver chart data...
Computing Atmospheric mass density...
Loading historical data...
Loading historical data...
Loading historical data...
Loading historical data...
Loading historical data...
Loading historical data...
Loading historical data...

Documentation

Showing up to 5 results
|